Powrót do katalogu

STARLINK-2583

AktywnyŁącznośćVLEO
NORAD 48439·PAYLOAD·🇺🇸 United States

Wystrzelony May 9, 2021 z Cape Canaveral Space Force Station

Loading…

Następne Przeloty (najbliższe 24 godziny)

TLE

ŚwieżeSource: CelesTrak SupGP

Epoka: Sep 15, 2026, 00:33 UTC

1 48439C 21040M   26258.02340278 -.00023062  00000+0 -74156-3 0  2582
2 48439  53.1598  17.2707 0001209  76.9090 356.1433 15.31716396    16

Śledź STARLINK-2583 w czasie rzeczywistym z AllMySat

Download on the App Store